Regional Weather Roundup
Issued by NWS

Home | Current Version | Previous Version | Text Only | Print | Product List | Glossary On
Versions: 1 2 3 4 5 6 7 8 9 10 11 12 13 14 15 16 17 18 19 20 21 22 23 24 25 26 27 28 29 30 31 32 33 34 35 36 37 38 39 40 41 42 43 44 45 46 47 48 49 50
000
ASUS42 KTBW 230810
RWRFL
FLORIDA REGIONAL WEATHER ROUNDUP
NATIONAL WEATHER SERVICE TAMPA BAY RUSKIN FL
400 AM EDT TUE SEP 23 2014

NOTE: "FAIR" INDICATES FEW OR NO CLOUDS BELOW 12,000 FEET WITH NO
SIGNIFICANT WEATHER AND/OR OBSTRUCTIONS TO VISIBILITY.


FLZ001>010-012>015-112-114-115-230900-
PANHANDLE FLORIDA

CITY           SKY/WX    TMP DP  RH WIND       PRES   REMARKS
PENSACOLA      CLEAR     65  58  78 N8        30.03F
PENSACOLA NAS  CLEAR     65  60  84 N6        30.03S
MILTON NAS     CLEAR     62  55  77 N6        30.05S
CRESTVIEW      CLEAR     61  59  93 N3        30.05F
DUKE FIELD     FAIR      60  60 100 N5        30.04S
VALPARAISO     CLEAR     65  63  92 N6        30.03S
MARY ESTHER    CLEAR     65  61  88 NE7       30.02S
TRI COUNTY     FAIR      65  64  97 MISG      30.04F
PANAMA CITY    FAIR      67  64  90 N5        30.01F
TYNDALL AFB    CLEAR     69  67  93 NE8       30.00F
APALACHICOLA   CLEAR     70  66  87 NE8       29.97F

STATION/POSITION SKY/WX   TEMP    WIND        PRES    WAVE   SWELL
                          AIR SEA DIR/SP/G            HT/PER HT/PER
                          (F)     (DEG/KT/KT) (MB)    (FT/S) (FT/S)
30.1N   87.6W              76 85   30/ 16/ 19 1016.5F   3/ 5
29.2N   88.2W              80 83   60/ 21/ 25 1016.0F   5/ 5
28.8N   86.0W              79 84   40/ 14/ 17 1014.2F   4/ 5
PANAMA CITY BEAC           70 84   40/ 12/ 17 1015.8F
CAPE SAN BLAS    NOT AVBL
TOWER C                    75      40/ 15/ 16 1014.6F
28.5N   84.5W              81 84  340/  8/ 10 1013.7F   2/ 5   2/ 5

$$
FLZ011-016>038-118-127-128-134-139-239-230900-
NORTH FLORIDA

CITY           SKY/WX    TMP DP  RH WIND       PRES   REMARKS
MARIANNA       CLEAR     66  66 100 N3        30.02F
TALLAHASSEE    CLEAR     70  65  84 N3        30.00S
PERRY          MOCLDY    70  70 100 NE5       29.99F
CROSS CITY       N/A     72  70  93 CALM      29.99R
LAKE CITY      CLOUDY    70  70 100 NE3       30.00S
GAINESVILLE    CLOUDY    71  71 100 N6        29.99S FOG
MAYPORT NAS    CLOUDY    74  68  81 NE10      29.99F
JACKSONVILLE   CLOUDY    71  71 100 N5        30.00S
JAX NAS        CLOUDY    76  71  85 NE5       30.00S
JAX CRAIG      MOCLDY    73  70  90 NE7       29.99S
JAX CECIL      CLOUDY    68  68 100 CALM      30.00S
ST AUGUSTINE   CLOUDY    74  73  97 CALM      29.99F

STATION/POSITION SKY/WX   TEMP    WIND        PRES    WAVE   SWELL
                          AIR SEA DIR/SP/G            HT/PER HT/PER
                          (F)     (DEG/KT/KT) (MB)    (FT/S) (FT/S)
SHELL POINT                72      20/  7/ 12   N/A
KEATON BEACH               71      40/  4/  7 1015.6S
CEDAR KEY                  72      30/  6/  7 1015.2F
FERNANDINA                 73 81   90/  4/ 11 1015.2F
30.7N   81.3W                 83                N/A     4/ 5
MAYPORT                    76 82   70/ 11/ 13   N/A
31.4N   80.9W              75 82   80/ 17/ 21 1016.4F   5/ 6
ST AUGUSTINE               78     120/  6/  8 1015.8F

$$
FLZ040-043>046-052-053-057-058-063-144-230900-
INTERIOR CENTRAL FLORIDA

CITY           SKY/WX    TMP DP  RH WIND       PRES   REMARKS
OCALA          MOCLDY    72  70  94 CALM      29.99S
THE VILLAGES     N/A     72  72 100 CALM      29.88F
LEESBURG       MOCLDY    74  71  91 SE5       29.99F
SANFORD        MOCLDY    73  71  93 N5        29.99S
ORLANDO EXEC   MOCLDY    74  72  93 CALM      29.98F
ORLANDO INTL   MOCLDY    72  72 100 SE10      29.97F
WINTER HAVEN   MOCLDY    73  72  96 CALM      29.99F
LAKELAND       CLOUDY   N/A N/A N/A CALM      29.97F
BARTOW         FAIR      72 N/A N/A CALM      29.99F
OKEECHOBEE       N/A     70  70 100 MISG      29.99F

$$
FLZ041-047-054-059-064-141-147-230900-
EAST CENTRAL FLORIDA

CITY           SKY/WX    TMP DP  RH WIND       PRES   REMARKS
DAYTONA BEACH  MOCLDY    71  70  96 CALM      29.98F
DELAND         PTSUNNY   70  70 100 CALM      30.00S
JFK SPACE CTR  CLOUDY    73  71  95 S5        29.99F
CAPE CANAVERAL PTCLDY    72  71  95 NW3       29.99S
PATRICK AFB    MOCLDY    75  74  95 SW2       29.99S
MELBOURNE      MOCLDY    74  71  91 NW5       29.99S
VERO BEACH     MOCLDY    72  71  97 CALM      29.97F
FT PIERCE      MOCLDY    72  70  93 NW3       29.97F
STUART         MOCLDY    75  72  88 E6        29.98F

STATION/POSITION SKY/WX   TEMP    WIND        PRES    WAVE   SWELL
                          AIR SEA DIR/SP/G            HT/PER HT/PER
                          (F)     (DEG/KT/KT) (MB)    (FT/S) (FT/S)
28.5N   80.2W              80 84  150/  8/ 10 1015.7F   2/ 8   2/ 8
28.9N   78.5W              78 84  140/  4/  6 1016.1F   2/ 8   2/ 8
TRIDENT PIER               76 83  230/  3/  4 1015.2R
28.4N   80.5W                 83                N/A     1/ 7
27.6N   80.2W                 83                N/A     2/ 9

$$
FLZ050-056-061-142-242-148-248-149-249-151-251-155-255-
160-260-230900-
WEST CENTRAL FLORIDA

CITY           SKY/WX    TMP DP  RH WIND       PRES   REMARKS
CRYSTAL RIVER  CLOUDY    72  70  94 E5        29.96F
INVERNESS      FAIR      70  68  94 CALM      29.97F
BROOKSVILLE    MOCLDY    72  70  93 CALM      29.98R
ZEPHYRHILLS    FAIR      63  63 100 SE5       29.97F
CLEARWATER     MOCLDY    74  71  91 S9        29.96F
TAMPA INTL     MOCLDY    73  70  90 SE6       29.97F
TAMPA EXEC     MOCLDY    73  70  88 S3        29.97F
PLANT CITY     MOCLDY    73 N/A N/A SE3       29.99F
MACDILL AFB    MOCLDY    73  73 100 SE8       29.96F
ST PETERSBURG  MOCLDY    75  71  87 S12       29.95F
SARASOTA       MOCLDY    72  71  97 E5        29.96F
VENICE           N/A    N/A N/A N/A MISG        N/A

STATION/POSITION SKY/WX   TEMP    WIND        PRES    WAVE   SWELL
                          AIR SEA DIR/SP/G            HT/PER HT/PER
                          (F)     (DEG/KT/KT) (MB)    (FT/S) (FT/S)
CEDAR KEY                  72      30/  6/  7 1015.2F
28.5N   84.5W              81 84  340/  8/ 10 1013.7F   2/ 5   2/ 5
27.3N   84.3W                 84                N/A     2/ 5
CLEARWATER BEACH NOT AVBL
MIDDLE TAMPA BAY           74     160/ 10/ 12 1015.0F
VENICE                     72 84   90/  7/  8 1014.4F

$$
FLZ066-069-070-075>078-162-262-165-265-230900-
SOUTHWEST FLORIDA AND KEYS

CITY           SKY/WX    TMP DP  RH WIND       PRES   REMARKS
PUNTA GORDA    CLOUDY    73  71  93 SE8       29.98F
FT MYERS       CLOUDY    72  72 100 CALM      29.95F
SOUTHWEST INTL MOCLDY    72  71  97 NE6       29.96F
NAPLES         CLOUDY    74  71  91 NE7       29.95F
MARCO ISLAND   PTSUNNY   73  72  94 NE7       29.95F
MARATHON       PTCLDY    78  75  90 CALM      29.93S
KEY WEST NAS   MOCLDY    81  76  84 NE6       29.94R THUNDER
KEY WEST INTL  MOCLDY    81  76  84 NE5       29.94R

STATION/POSITION SKY/WX   TEMP    WIND        PRES    WAVE   SWELL
                          AIR SEA DIR/SP/G            HT/PER HT/PER
                          (F)     (DEG/KT/KT) (MB)    (FT/S) (FT/S)
VENICE                     72 84   90/  7/  8 1014.4F
NAPLES                     74 88   60/  7/ 10 1014.7F
DRY TORTUGAS               80     120/  2/  2 1013.8F
NW FL BAY                  79      70/  5/  6 1014.5F
SAND KEY                   82      70/  3/  7 1013.6R
SOMBRERO KEY               81      70/  6/  6 1014.5R
LONG KEY                   80 84   60/ 13/ 14 1014.6R
MOLASSES REEF              80 85   50/ 10/ 13 1014.1R

$$
FLZ067-068-071>074-168-172>174-230900-
SOUTHEAST FLORIDA

CITY           SKY/WX    TMP DP  RH WIND       PRES   REMARKS
W PALM BEACH   PTCLDY    77  72  84 E7        29.95F
FT LAUDER-EXEC PTCLDY    74  74 100 CALM      29.96S
FT LAUDERDALE  PTCLDY    75  74  96 E3        29.95F
POMPANO BEACH  PTCLDY    76  74  93 E3        29.96F
PEMBROKE PINES PTCLDY    74  74 100 CALM      29.97S
OPA LOCKA      PTCLDY    75  72  90 NE3       29.96F
MIAMI          PTCLDY    75  74  96 CALM      29.96S
WEST KENDALL   MOCLDY    76  73  91 E5        29.95S
HOMESTEAD      MOCLDY    75  73  93 N5        29.95F

STATION/POSITION SKY/WX   TEMP    WIND        PRES    WAVE   SWELL
                          AIR SEA DIR/SP/G            HT/PER HT/PER
                          (F)     (DEG/KT/KT) (MB)    (FT/S) (FT/S)
PORT EVERGLADES            80      50/  5/  8 1014.2
VIRGINIA KEY               79 85   50/  6/  8   N/A
LAKE WORTH                 79 85   80/ 12/ 13 1014.4F
FOWEY ROCKS                81 84   90/ 15/ 16 1014.2F
SETTLEMENT POINT           77      60/ 12/ 14 1016.4R

$$




USA.gov is the U.S. government's official web portal to all federal, state and local government web resources and services.